Theta_e
352 352 352 351 352 354 354 352 352 353 353 353 354 353 354 354 354 356 356 357 357 356 356 356 355 355 357 360 360 359 359 358 358 357 356 356 353 348 344 344 344 344
352 352 352 351 352 353 355 354 353 353 353 353 353 352 354 354 355 355 355 356 357 356 356 356 356 356 356 358 360 360 359 359 358 358 357 356 355 352 347 345 344 345
353 352 352 352 352 352 354 355 354 353 353 354 355 354 354 354 355 355 355 355 355 357 356 356 356 357 356 357 360 360 359 359 358 358 358 358 356 354 351 347 344 344
353 353 352 352 352 352 352 355 356 355 354 355 356 355 354 354 354 354 355 355 355 356 357 357 357 357 357 357 360 361 359 359 359 358 359 359 357 356 355 352 346 343
353 353 353 352 352 353 353 354 356 356 355 355 355 356 356 355 355 355 356 356 356 357 357 357 357 357 357 358 360 361 359 358 359 359 359 359 358 357 356 354 350 345
354 353 353 353 353 354 354 354 355 356 356 355 355 356 357 356 356 356 356 357 357 357 357 358 359 358 358 359 360 360 359 357 357 359 359 358 358 357 356 356 354 350
354 354 353 354 354 354 355 355 355 355 357 356 355 355 357 357 358 357 356 357 357 358 358 358 359 359 358 358 360 360 359 357 357 358 359 359 358 358 356 356 355 353
355 355 354 354 354 355 356 355 355 356 356 358 357 356 356 356 357 358 358 358 358 358 359 358 358 360 360 360 359 360 359 357 357 358 359 359 358 358 357 356 356 354
355 355 355 355 355 355 355 355 355 355 356 358 358 357 357 356 356 357 358 359 358 359 359 358 359 359 359 360 359 359 359 358 358 358 358 359 358 358 358 357 357 356
356 355 355 356 356 355 355 355 355 355 355 357 358 359 358 357 357 357 358 358 359 359 359 359 359 359 359 360 359 359 359 358 358 358 358 359 358 358 358 357 357 356
356 356 355 356 355 355 356 355 355 355 355 356 357 359 359 358 358 358 358 359 358 359 359 359 359 359 359 360 360 359 359 358 358 359 358 358 358 357 357 357 356 355
357 357 356 356 355 355 355 356 355 356 355 355 355 356 358 359 360 359 359 359 359 358 358 359 359 359 359 360 360 360 360 359 359 358 358 358 358 358 358 357 357 356
357 357 357 356 356 355 355 355 355 355 356 355 355 354 356 358 360 360 360 360 360 360 360 359 359 359 359 359 360 360 360 360 360 359 359 359 358 358 358 358 358 356
358 358 357 357 356 356 356 355 356 356 355 356 355 354 355 356 357 359 360 359 360 359 360 360 359 360 359 360 360 360 360 361 361 361 360 360 360 360 359 359 358 357
359 359 358 357 357 356 356 356 355 356 356 356 356 355 355 355 355 357 359 360 360 359 359 359 359 359 359 359 360 360 361 360 361 361 361 361 360 360 359 359 359 359
360 360 359 359 358 357 357 356 356 356 356 356 356 356 356 355 355 355 357 358 359 359 358 359 359 360 359 359 359 359 360 360 361 361 361 361 361 360 360 359 359 359
361 360 360 359 359 358 357 357 357 357 356 356 356 357 356 356 356 355 356 356 358 358 358 358 358 359 359 359 359 359 360 360 361 361 361 361 361 360 360 359 359 359
361 361 360 360 359 358 358 357 357 357 356 356 356 357 357 357 357 356 355 356 357 357 359 358 358 358 357 358 359 359 360 360 360 361 361 361 361 361 360 359 359 359
362 362 361 360 360 359 358 358 358 357 356 356 356 356 357 357 357 357 356 357 357 357 358 358 358 358 358 358 358 358 360 361 361 361 361 361 361 361 361 360 360 359
364 362 361 361 360 359 358 358 358 357 356 356 356 356 356 356 357 357 357 357 356 357 357 358 358 358 358 359 358 358 359 360 361 362 361 361 361 361 361 361 361 360
365 363 362 361 360 360 359 358 358 358 358 356 356 356 356 356 357 357 357 357 356 356 357 357 357 357 358 358 358 359 359 359 360 361 361 361 361 361 361 361 361 361
366 364 363 362 361 360 359 358 358 358 358 358 357 356 356 356 356 357 357 357 358 357 356 356 356 357 358 358 359 359 360 361 361 361 361 361 361 361 361 361 362 362
367 366 364 362 361 361 359 359 358 359 359 359 358 357 357 356 357 357 357 358 359 358 357 357 357 357 358 359 359 360 360 361 361 361 361 361 361 361 361 361 361 361
367 366 365 364 363 362 360 359 359 359 358 359 359 358 357 357 357 357 357 358 359 359 359 359 359 358 359 360 361 361 361 362 361 361 361 360 361 361 361 362 361 361
367 367 367 366 365 364 362 361 360 359 359 359 359 359 358 358 358 357 357 358 358 359 360 360 361 360 360 360 361 361 362 363 363 362 361 360 361 361 361 361 361 361
368 368 367 367 366 365 364 363 362 360 360 360 360 360 359 358 358 358 358 358 358 358 359 360 361 361 361 362 361 361 362 363 363 363 361 361 362 361 362 362 362 362
Wind_Speed
40 39 39 38 36 35 36 37 36 35 35 35 34 34 33 33 31 30 28 28 28 27 27 26 24 23 23 22 21 20 20 21 22 22 21 20 19 18 19 20 18 18
40 39 39 37 36 34 34 36 37 36 36 36 36 35 34 33 32 30 29 29 29 29 28 27 26 25 24 24 23 22 21 22 23 23 22 22 20 19 19 20 20 19
40 40 39 38 38 37 36 35 36 36 36 35 35 35 34 33 32 31 30 29 30 30 30 29 28 26 26 25 25 24 23 23 24 25 24 23 22 20 19 20 21 22
40 40 40 40 39 39 37 35 35 36 35 35 35 35 34 33 32 31 31 31 30 31 31 31 30 29 27 27 27 27 26 25 25 25 26 25 24 23 21 20 21 23
40 39 39 39 39 38 36 35 36 36 36 36 36 35 34 34 33 32 32 32 32 31 31 32 32 30 29 28 29 29 29 28 27 26 27 27 26 25 24 23 22 23
39 39 39 38 37 36 36 36 37 36 37 38 37 36 35 34 34 34 33 33 33 32 32 32 33 32 31 30 30 31 31 30 30 29 29 29 28 27 26 26 26 25
40 40 39 38 36 35 36 37 37 36 37 37 37 36 35 34 34 35 34 34 34 33 33 33 33 34 33 33 33 33 33 32 32 31 30 31 30 30 29 28 28 28
40 40 40 39 37 36 36 36 36 36 36 36 36 37 37 36 36 35 35 35 35 35 34 34 34 35 35 35 35 36 35 34 33 33 33 33 32 32 32 31 30 31
39 38 38 38 38 37 37 37 36 37 36 35 35 36 37 38 37 37 36 36 36 36 36 36 36 36 36 37 37 37 37 36 36 35 35 35 35 35 34 33 33 33
38 37 37 37 38 38 38 38 38 37 36 36 35 35 36 37 38 37 37 37 36 37 37 38 38 38 38 38 39 39 38 38 37 37 37 37 37 38 37 36 36 36
39 38 38 39 39 39 39 39 38 37 37 37 36 35 35 36 37 37 38 38 39 39 39 39 40 40 39 39 40 39 39 39 39 39 39 39 39 39 39 38 38 39
39 40 40 40 40 40 39 39 38 38 37 38 38 37 36 36 37 38 39 40 41 42 41 41 41 40 40 40 40 39 39 39 39 40 40 40 40 40 40 39 39 40
40 41 41 41 41 41 40 39 39 39 39 39 40 39 38 38 38 39 40 40 42 42 42 42 42 41 41 41 40 40 40 40 40 40 41 41 41 41 40 40 40 40
41 41 41 41 41 41 41 40 40 40 40 40 40 40 41 40 40 40 40 41 42 42 42 42 41 41 41 40 41 41 40 40 40 40 40 40 40 41 41 40 40 40
40 40 40 40 39 39 40 41 41 41 40 40 40 41 41 41 41 40 40 40 41 42 42 42 41 41 42 42 42 42 41 41 41 40 40 39 39 40 40 40 40 40
39 39 39 38 39 39 40 41 41 40 40 40 40 41 41 41 41 40 40 41 41 41 42 42 42 42 43 45 45 44 43 41 40 40 39 38 38 38 38 39 40 40
38 38 37 38 38 39 39 40 40 40 39 40 40 40 40 40 40 40 41 41 41 42 42 43 43 44 45 46 47 46 44 41 39 40 39 38 38 37 38 39 40 40
37 37 37 37 37 38 38 39 39 39 39 39 39 40 39 39 40 41 41 41 41 41 42 43 45 46 46 46 47 47 46 43 41 39 39 39 39 38 38 38 37 38
37 37 37 37 37 38 38 37 37 39 39 39 39 39 38 38 40 41 42 41 41 41 42 43 45 46 47 47 47 47 47 45 43 40 39 39 39 38 37 37 37 37
37 37 37 37 37 37 37 37 38 39 39 39 38 38 38 39 40 41 42 42 42 42 42 43 44 46 46 46 47 47 46 46 45 43 40 39 38 38 37 37 38 37
37 37 37 37 37 37 38 38 39 38 38 38 37 37 38 40 40 41 42 42 42 42 42 42 44 45 44 45 47 47 46 46 45 44 41 39 39 38 38 39 39 38
36 36 36 36 37 37 38 38 38 38 38 38 37 36 37 38 39 39 40 40 40 41 41 42 43 43 43 45 45 45 45 45 44 44 43 41 41 39 38 39 39 38
37 36 36 36 36 37 37 38 38 38 38 37 37 36 37 37 38 38 38 39 39 39 40 41 42 41 41 42 43 42 42 43 44 44 43 43 42 41 40 39 39 39
37 37 37 37 36 37 37 37 38 38 37 37 38 38 38 38 38 37 37 37 37 38 39 39 39 38 37 37 38 38 39 42 43 43 42 42 42 41 40 40 40 41
38 38 38 38 37 38 38 38 38 38 38 38 38 39 38 38 37 36 36 36 37 37 37 37 36 35 34 34 34 35 37 40 42 42 40 40 40 39 39 40 40 40
38 38 39 38 38 38 37 38 38 37 37 37 37 37 36 35 36 36 35 36 36 36 36 36 35 33 32 33 33 33 34 36 39 41 40 38 38 38 38 38 37 38
Wind_Direction
204 204 204 204 204 204 203 203 204 205 208 211 213 216 217 218 219 217 216 215 216 219 221 224 226 227 228 228 228 228 226 222 221 221 222 226 230 228 224 220 219 218
205 205 205 206 206 206 205 205 205 206 208 212 215 218 219 219 219 218 218 217 218 220 222 224 227 228 228 228 226 226 227 226 226 225 225 229 229 227 227 224 222 222
205 206 206 207 207 208 207 206 206 207 209 212 215 218 219 220 220 220 220 219 219 220 222 224 227 228 229 228 227 227 228 229 228 228 228 231 230 228 229 227 224 224
206 207 208 209 209 209 208 207 207 208 209 212 215 217 218 220 221 221 221 220 220 220 221 223 226 228 228 227 226 227 230 231 231 230 230 231 232 231 231 230 228 226
208 209 210 210 211 210 209 208 209 209 210 212 214 216 217 219 220 222 221 220 220 221 222 222 224 227 228 226 224 226 230 232 232 232 231 232 232 233 233 232 231 229
208 209 211 211 211 211 210 210 211 210 211 213 214 215 216 218 220 221 221 220 220 221 222 222 223 225 227 226 225 226 229 230 232 231 231 232 233 234 234 233 233 232
207 209 210 212 212 212 212 212 212 212 213 213 213 214 215 216 218 220 220 220 220 221 223 223 223 223 224 226 225 226 228 230 231 230 231 232 233 233 234 234 234 234
207 208 210 211 212 213 214 214 214 214 214 214 213 214 214 215 217 218 220 220 220 222 223 224 224 224 223 223 224 225 226 228 228 229 229 230 231 232 233 233 234 235
207 208 209 210 211 213 215 215 215 215 214 214 214 215 215 216 217 218 219 220 221 222 223 225 225 225 224 223 223 224 225 226 226 227 228 228 229 231 232 232 232 234
207 208 209 210 211 213 215 216 216 216 215 215 215 215 216 217 218 219 219 220 221 223 224 225 226 225 225 224 224 224 225 225 226 226 227 228 229 230 231 231 231 233
206 207 208 210 212 213 215 216 216 216 216 216 216 216 217 217 218 218 219 219 221 223 224 225 226 225 225 225 225 225 225 225 226 227 228 229 230 231 231 231 231 233
205 207 208 210 212 213 215 216 216 217 217 217 217 217 217 218 218 218 218 220 222 223 224 225 226 226 225 226 226 225 225 226 227 228 229 230 231 232 233 232 232 234
206 208 209 210 211 213 214 215 216 217 217 217 218 217 217 217 218 218 218 220 222 224 224 226 226 226 226 227 226 226 226 226 227 228 229 231 232 233 234 234 234 235
208 209 210 211 212 213 214 215 216 217 217 217 218 217 218 218 218 219 219 220 223 224 225 226 226 226 226 227 227 227 227 227 227 228 228 230 232 234 235 235 236 237
209 210 211 212 212 213 214 215 216 216 216 217 218 218 218 219 219 220 220 220 222 224 226 227 227 227 227 227 227 227 227 228 229 229 229 229 231 233 235 236 236 237
208 209 211 211 212 213 214 215 216 217 216 217 217 218 219 219 220 220 221 221 222 223 225 226 227 228 228 229 229 228 228 228 230 231 231 231 231 233 235 236 237 238
208 209 210 211 212 213 214 215 216 216 217 217 218 218 219 219 219 220 221 222 222 223 225 226 227 228 229 230 231 230 229 228 229 232 233 233 233 233 234 236 237 238
207 209 210 212 212 213 214 216 216 217 217 218 218 219 219 219 219 220 221 222 222 224 225 226 229 230 230 231 232 232 231 229 230 232 233 234 235 234 236 237 238 240
207 209 210 211 212 213 214 215 216 217 217 218 219 219 219 219 220 221 222 222 222 224 226 227 230 232 232 232 233 234 233 231 231 232 234 235 236 237 237 238 240 241
207 208 210 211 212 213 213 214 215 217 218 218 219 219 219 220 221 222 223 223 222 224 226 229 231 233 233 233 234 235 234 233 232 233 235 237 238 238 239 240 241 242
206 207 208 210 211 211 211 213 215 216 217 218 219 219 220 221 223 223 225 225 224 225 227 230 232 234 234 235 236 236 236 235 233 233 235 238 240 240 240 242 243 243
205 206 207 208 209 209 210 212 214 215 216 217 217 219 222 224 225 226 226 227 227 226 227 231 234 234 235 236 237 237 236 235 234 234 236 238 240 241 242 243 244 244
204 205 206 207 208 208 209 211 213 215 216 215 216 218 221 223 225 227 228 229 229 228 228 231 234 235 235 236 238 238 236 235 234 234 235 238 240 242 242 244 245 245
205 205 206 206 207 208 209 211 213 214 215 215 215 217 220 222 225 227 229 230 231 231 231 232 234 236 236 237 238 237 236 235 234 234 235 238 241 242 243 244 246 246
205 205 206 207 207 208 210 211 212 214 215 215 216 217 220 222 224 226 229 230 232 233 233 234 235 236 237 237 237 237 236 236 234 233 235 237 240 243 244 246 247 248
206 205 206 207 208 209 210 211 212 213 214 215 216 218 220 222 223 225 228 230 231 233 234 235 235 235 235 236 237 236 235 234 232 231 233 236 239 241 243 245 247 248